Location: Eppenbrunn
(49.1158°N, 7.5601°E)
Time: 18:04:19
(UTC+00:00)

Cosmos 1140 Rocket - Pass Details

Date: 09 April 2020
Orbit: 745 x 767 km, 74.1° (Epoch: 02 June)

Event Time Altitude Azimuth Distance (km) Brightness Sun altitude
Rises 20:05:25 0° 217° (SW) 3,203 6.7 -17.4°
Reaches altitude 10° 20:07:51 10° 222° (SW) 2,278 6.0 -17.7°
Maximum altitude 20:12:52 51° 299° (WNW) 944 4.3 -18.4°
Drops below altitude 10° 20:17:54 10° 15° (NNE) 2,280 6.2 -19.0°
Sets 20:20:20 0° 21° (NNE) 3,205 7.0 -19.3°
